Zurück zum Katalog

OPS 4682 DEB

AktivPO
NORAD 51492·DEBRIS·🇺🇸 United States

Gestartet Apr 3, 1965 von Vandenberg Space Force Base

Loading…

Nächste Überflüge (nächste 24 Stunden)

TLE

AlterndSource: Space-Track

Epoche: Sep 8, 2026, 03:37 UTC

1 51492U 65027GC  26251.15099904  .00000758  00000-0  24917-2 0  9999
2 51492  90.2648  19.6932 0030470  70.3262 107.9965 12.99888806774550

Verfolge OPS 4682 DEB in Echtzeit mit AllMySat

Download on the App Store